Location: Ailly
(50.0793°N, 1.9944°E)
Time: 10:53:11
(UTC+00:00)

CENTAUR R/B - Pass Details

Date: 15 January 2026
Orbit: 629 x 1552 km, 63.4° (Epoch: 15 February)

Event Time Altitude Azimuth Distance (km) Brightness Sun altitude
Rises 05:58:06 0° 182° (S) 3,183 5.4 -16.5°
Reaches altitude 10° 06:00:32 10° 171° (S) 2,368 4.8 -16.2°
Maximum altitude 06:05:12 29° 112° (ESE) 1,597 4.5 -15.4°
Drops below altitude 10° 06:10:49 10° 55° (NE) 2,892 5.5 -14.6°
Sets 06:14:07 0° 46° (NE) 4,020 6.1 -14.1°
